Time,TemperatureF,DewpointF,PressureIn,WindDirection,WindDirectionDegrees,WindSpeedMPH,WindSpeedGustMPH,Humidity,HourlyPrecipIn,Conditions,Clouds,dailyrainin,SoftwareType,DateUTC
2013-06-24 00:01:00,75.5,67.4,29.96,SW,235,4.0,4.0,76,0.00,,,0.00,Wunderground v.1.15,2013-06-24 04:01:00,
2013-06-24 00:02:00,75.5,67.4,29.96,SW,231,5.0,5.0,76,0.00,,,0.00,Wunderground v.1.15,2013-06-24 04:02:00,
2013-06-24 00:06:00,75.3,67.2,29.96,WSW,257,1.0,5.0,76,0.00,,,0.00,Wunderground v.1.15,2013-06-24 04:06:00,
2013-06-24 00:12:00,75.2,67.5,29.96,SW,233,0.0,3.0,77,0.00,,,0.00,Wunderground v.1.15,2013-06-24 04:12:00,
2013-06-24 00:17:00,75.1,67.0,29.96,SW,233,0.0,3.0,76,0.00,,,0.00,Wunderground v.1.15,2013-06-24 04:17:00,
2013-06-24 00:20:00,75.0,66.9,29.96,South,182,0.0,2.0,76,0.00,,,0.00,Wunderground v.1.15,2013-06-24 04:20:00,
2013-06-24 00:25:00,74.9,67.2,29.97,WSW,239,2.0,3.0,77,0.00,,,0.00,Wunderground v.1.15,2013-06-24 04:25:00,
2013-06-24 00:30:00,74.9,67.2,29.97,WSW,246,0.0,2.0,77,0.00,,,0.00,Wunderground v.1.15,2013-06-24 04:30:00,
2013-06-24 00:35:00,75.0,66.9,29.96,South,188,3.0,4.0,76,0.00,,,0.00,Wunderground v.1.15,2013-06-24 04:35:00,
2013-06-24 00:41:00,75.0,67.3,29.97,WSW,247,1.0,2.0,77,0.00,,,0.00,Wunderground v.1.15,2013-06-24 04:41:00,
2013-06-24 00:46:00,74.9,67.2,29.97,West,281,2.0,3.0,77,0.00,,,0.00,Wunderground v.1.15,2013-06-24 04:46:00,
2013-06-24 00:51:00,74.9,67.2,29.97,SW,215,1.0,2.0,77,0.00,,,0.00,Wunderground v.1.15,2013-06-24 04:51:00,
2013-06-24 00:56:00,74.9,66.8,29.97,WSW,255,1.0,4.0,76,0.00,,,0.00,Wunderground v.1.15,2013-06-24 04:56:00,
2013-06-24 01:02:00,74.9,67.2,29.97,SW,218,1.0,2.0,77,0.00,,,0.00,Wunderground v.1.15,2013-06-24 05:02:00,
2013-06-24 01:07:00,74.8,66.7,29.97,SW,215,3.0,3.0,76,0.00,,,0.00,Wunderground v.1.15,2013-06-24 05:07:00,
2013-06-24 01:12:00,74.7,67.0,29.97,South,184,0.0,2.0,77,0.00,,,0.00,Wunderground v.1.15,2013-06-24 05:12:00,
2013-06-24 01:17:00,74.6,66.9,29.97,South,189,2.0,2.0,77,0.00,,,0.00,Wunderground v.1.15,2013-06-24 05:17:00,
2013-06-24 01:22:00,74.7,67.0,29.97,WSW,251,1.0,4.0,77,0.00,,,0.00,Wunderground v.1.15,2013-06-24 05:22:00,
2013-06-24 01:28:00,74.6,66.9,29.97,SSW,200,3.0,4.0,77,0.00,,,0.00,Wunderground v.1.15,2013-06-24 05:28:00,
2013-06-24 01:34:00,74.5,67.2,29.97,WNW,303,2.0,3.0,78,0.00,,,0.00,Wunderground v.1.15,2013-06-24 05:34:00,
2013-06-24 01:41:00,74.6,66.9,29.97,WSW,245,3.0,3.0,77,0.00,,,0.00,Wunderground v.1.15,2013-06-24 05:41:00,
2013-06-24 01:46:00,74.7,67.0,29.97,SW,229,0.0,4.0,77,0.00,,,0.00,Wunderground v.1.15,2013-06-24 05:46:00,
2013-06-24 01:52:00,74.6,66.9,29.97,SSW,201,1.0,4.0,77,0.00,,,0.00,Wunderground v.1.15,2013-06-24 05:52:00,
2013-06-24 01:57:00,74.4,66.7,29.96,SSW,204,2.0,4.0,77,0.00,,,0.00,Wunderground v.1.15,2013-06-24 05:57:00,
2013-06-24 02:02:00,74.3,67.0,29.97,WSW,246,2.0,6.0,78,0.00,,,0.00,Wunderground v.1.15,2013-06-24 06:02:00,
2013-06-24 02:08:00,74.2,66.9,29.97,SSW,206,2.0,6.0,78,0.00,,,0.00,Wunderground v.1.15,2013-06-24 06:08:00,
2013-06-24 02:13:00,74.2,66.9,29.96,WSW,241,0.0,6.0,78,0.00,,,0.00,Wunderground v.1.15,2013-06-24 06:13:00,
2013-06-24 02:18:00,74.2,66.9,29.96,SW,223,2.0,6.0,78,0.00,,,0.00,Wunderground v.1.15,2013-06-24 06:18:00,
2013-06-24 02:23:00,74.1,66.8,29.96,SW,234,1.0,6.0,78,0.00,,,0.00,Wunderground v.1.15,2013-06-24 06:23:00,
2013-06-24 02:28:00,74.3,67.0,29.96,NW,304,1.0,8.0,78,0.00,,,0.00,Wunderground v.1.15,2013-06-24 06:28:00,
2013-06-24 02:34:00,74.3,67.0,29.96,SSW,205,0.0,6.0,78,0.00,,,0.00,Wunderground v.1.15,2013-06-24 06:34:00,
2013-06-24 02:40:00,74.2,66.9,29.96,SW,236,1.0,2.0,78,0.00,,,0.00,Wunderground v.1.15,2013-06-24 06:40:00,
2013-06-24 02:45:00,74.1,67.2,29.96,SSW,200,0.0,4.0,79,0.00,,,0.00,Wunderground v.1.15,2013-06-24 06:45:00,
2013-06-24 02:50:00,74.0,67.1,29.96,SSW,210,1.0,1.0,79,0.00,,,0.00,Wunderground v.1.15,2013-06-24 06:50:00,
2013-06-24 02:55:00,73.9,67.0,29.95,SW,218,0.0,2.0,79,0.00,,,0.00,Wunderground v.1.15,2013-06-24 06:55:00,
2013-06-24 03:00:00,73.9,67.0,29.96,SW,219,0.0,1.0,79,0.00,,,0.00,Wunderground v.1.15,2013-06-24 07:00:00,
2013-06-24 03:05:00,73.7,67.1,29.95,SW,220,2.0,3.0,80,0.00,,,0.00,Wunderground v.1.15,2013-06-24 07:05:00,
2013-06-24 03:12:00,73.5,66.9,29.95,SW,229,2.0,4.0,80,0.00,,,0.00,Wunderground v.1.15,2013-06-24 07:12:00,
2013-06-24 03:17:00,73.4,67.2,29.95,WSW,240,0.0,4.0,81,0.00,,,0.00,Wunderground v.1.15,2013-06-24 07:17:00,
2013-06-24 03:22:00,73.3,67.1,29.95,SW,232,0.0,1.0,81,0.00,,,0.00,Wunderground v.1.15,2013-06-24 07:22:00,
2013-06-24 03:27:00,73.2,67.0,29.95,SW,223,0.0,3.0,81,0.00,,,0.00,Wunderground v.1.15,2013-06-24 07:27:00,
2013-06-24 03:32:00,73.2,67.0,29.96,SW,227,2.0,4.0,81,0.00,,,0.00,Wunderground v.1.15,2013-06-24 07:32:00,
2013-06-24 03:37:00,73.2,67.0,29.96,SSW,194,0.0,4.0,81,0.00,,,0.00,Wunderground v.1.15,2013-06-24 07:37:00,
2013-06-24 03:43:00,73.2,67.0,29.96,SW,226,0.0,2.0,81,0.00,,,0.00,Wunderground v.1.15,2013-06-24 07:43:00,
2013-06-24 03:48:00,73.1,66.9,29.96,SSW,192,0.0,3.0,81,0.00,,,0.00,Wunderground v.1.15,2013-06-24 07:48:00,
2013-06-24 03:53:00,73.0,67.2,29.96,SW,236,2.0,4.0,82,0.00,,,0.00,Wunderground v.1.15,2013-06-24 07:53:00,
2013-06-24 03:58:00,73.0,67.2,29.96,WSW,258,0.0,4.0,82,0.00,,,0.00,Wunderground v.1.15,2013-06-24 07:58:00,
2013-06-24 04:03:00,72.9,67.1,29.96,WSW,258,1.0,2.0,82,0.00,,,0.00,Wunderground v.1.15,2013-06-24 08:03:00,
2013-06-24 04:08:00,72.8,67.0,29.96,WNW,288,1.0,2.0,82,0.00,,,0.00,Wunderground v.1.15,2013-06-24 08:08:00,
2013-06-24 04:13:00,72.8,67.3,29.96,WSW,238,0.0,6.0,83,0.00,,,0.00,Wunderground v.1.15,2013-06-24 08:13:00,
2013-06-24 04:19:00,72.7,67.2,29.96,WNW,293,2.0,6.0,83,0.00,,,0.00,Wunderground v.1.15,2013-06-24 08:19:00,
2013-06-24 04:24:00,72.7,67.2,29.97,WSW,252,1.0,2.0,83,0.00,,,0.00,Wunderground v.1.15,2013-06-24 08:24:00,
2013-06-24 04:29:00,72.7,67.2,29.97,WSW,242,0.0,3.0,83,0.00,,,0.00,Wunderground v.1.15,2013-06-24 08:29:00,
2013-06-24 04:34:00,72.7,67.2,29.97,WSW,244,1.0,3.0,83,0.00,,,0.00,Wunderground v.1.15,2013-06-24 08:34:00,
2013-06-24 04:39:00,72.7,67.2,29.96,SSW,202,1.0,3.0,83,0.00,,,0.00,Wunderground v.1.15,2013-06-24 08:39:00,
2013-06-24 04:44:00,72.7,67.2,29.96,WSW,237,2.0,5.0,83,0.00,,,0.00,Wunderground v.1.15,2013-06-24 08:44:00,
2013-06-24 04:49:00,72.8,67.3,29.96,SSW,204,0.0,5.0,83,0.00,,,0.00,Wunderground v.1.15,2013-06-24 08:49:00,
2013-06-24 04:54:00,72.8,67.3,29.96,SW,219,2.0,4.0,83,0.00,,,0.00,Wunderground v.1.15,2013-06-24 08:54:00,
2013-06-24 04:59:00,72.8,67.3,29.96,SW,223,2.0,4.0,83,0.00,,,0.00,Wunderground v.1.15,2013-06-24 08:59:00,
2013-06-24 05:04:00,72.8,67.3,29.97,SSW,197,1.0,3.0,83,0.00,,,0.00,Wunderground v.1.15,2013-06-24 09:04:00,
2013-06-24 05:09:00,72.7,67.2,29.97,SSW,202,1.0,3.0,83,0.00,,,0.00,Wunderground v.1.15,2013-06-24 09:09:00,
2013-06-24 05:14:00,72.7,67.2,29.97,WSW,246,1.0,4.0,83,0.00,,,0.00,Wunderground v.1.15,2013-06-24 09:14:00,
2013-06-24 05:19:00,72.8,67.7,29.97,SSW,196,0.0,4.0,84,0.00,,,0.00,Wunderground v.1.15,2013-06-24 09:19:00,
2013-06-24 05:24:00,72.7,67.6,29.96,SW,236,1.0,2.0,84,0.00,,,0.00,Wunderground v.1.15,2013-06-24 09:24:00,
2013-06-24 05:29:00,72.7,67.6,29.97,WSW,245,3.0,3.0,84,0.00,,,0.00,Wunderground v.1.15,2013-06-24 09:29:00,
2013-06-24 05:34:00,72.7,67.6,29.97,WSW,258,0.0,5.0,84,0.00,,,0.00,Wunderground v.1.15,2013-06-24 09:34:00,
2013-06-24 05:40:00,72.8,67.7,29.97,SW,234,0.0,1.0,84,0.00,,,0.00,Wunderground v.1.15,2013-06-24 09:40:00,
2013-06-24 05:46:00,72.8,67.3,29.97,WSW,237,1.0,5.0,83,0.00,,,0.00,Wunderground v.1.15,2013-06-24 09:46:00,
2013-06-24 05:52:00,72.9,67.4,29.97,SW,225,0.0,2.0,83,0.00,,,0.00,Wunderground v.1.15,2013-06-24 09:52:00,
2013-06-24 05:57:00,72.9,67.4,29.97,West,273,3.0,4.0,83,0.00,,,0.00,Wunderground v.1.15,2013-06-24 09:57:00,
2013-06-24 06:02:00,73.0,67.5,29.97,WSW,252,0.0,4.0,83,0.00,,,0.00,Wunderground v.1.15,2013-06-24 10:02:00,
2013-06-24 06:07:00,72.9,67.8,29.98,WSW,252,1.0,4.0,84,0.00,,,0.00,Wunderground v.1.15,2013-06-24 10:07:00,
2013-06-24 06:12:00,72.8,67.7,29.97,WSW,252,3.0,3.0,84,0.00,,,0.00,Wunderground v.1.15,2013-06-24 10:12:00,
2013-06-24 06:17:00,72.9,67.8,29.98,SW,229,1.0,4.0,84,0.00,,,0.00,Wunderground v.1.15,2013-06-24 10:17:00,
2013-06-24 06:22:00,72.9,67.8,29.98,South,182,1.0,2.0,84,0.00,,,0.00,Wunderground v.1.15,2013-06-24 10:22:00,
2013-06-24 06:27:00,72.9,67.8,29.98,West,275,0.0,4.0,84,0.00,,,0.00,Wunderground v.1.15,2013-06-24 10:27:00,
2013-06-24 06:32:00,73.0,67.9,29.98,South,182,1.0,4.0,84,0.00,,,0.00,Wunderground v.1.15,2013-06-24 10:32:00,
2013-06-24 06:37:00,73.1,68.0,29.98,SW,215,1.0,4.0,84,0.00,,,0.00,Wunderground v.1.15,2013-06-24 10:37:00,
2013-06-24 06:42:00,73.2,68.1,29.98,WSW,249,1.0,4.0,84,0.00,,,0.00,Wunderground v.1.15,2013-06-24 10:42:00,
2013-06-24 06:48:00,73.5,68.0,29.98,West,261,2.0,6.0,83,0.00,,,0.00,Wunderground v.1.15,2013-06-24 10:48:00,
2013-06-24 06:53:00,73.8,68.7,29.98,SW,227,2.0,7.0,84,0.00,,,0.00,Wunderground v.1.15,2013-06-24 10:53:00,
2013-06-24 06:59:00,74.0,68.5,29.98,SSW,196,3.0,7.0,83,0.00,,,0.00,Wunderground v.1.15,2013-06-24 10:59:00,
2013-06-24 07:04:00,74.3,68.4,29.98,WNW,288,2.0,5.0,82,0.00,,,0.00,Wunderground v.1.15,2013-06-24 11:04:00,
2013-06-24 07:10:00,74.6,68.7,29.98,SW,221,3.0,3.0,82,0.00,,,0.00,Wunderground v.1.15,2013-06-24 11:10:00,
2013-06-24 07:16:00,74.8,68.9,29.98,West,267,2.0,5.0,82,0.00,,,0.00,Wunderground v.1.15,2013-06-24 11:16:00,
2013-06-24 07:21:00,75.1,68.9,29.98,SW,223,4.0,4.0,81,0.00,,,0.00,Wunderground v.1.15,2013-06-24 11:21:00,
2013-06-24 07:27:00,75.3,69.1,29.98,SSW,204,1.0,5.0,81,0.00,,,0.00,Wunderground v.1.15,2013-06-24 11:27:00,
2013-06-24 07:32:00,75.7,69.1,29.98,WSW,257,1.0,8.0,80,0.00,,,0.00,Wunderground v.1.15,2013-06-24 11:32:00,
2013-06-24 07:37:00,76.0,69.4,29.98,WSW,257,1.0,8.0,80,0.00,,,0.00,Wunderground v.1.15,2013-06-24 11:37:00,
2013-06-24 07:42:00,76.2,69.2,29.98,SSW,194,3.0,4.0,79,0.00,,,0.00,Wunderground v.1.15,2013-06-24 11:42:00,
2013-06-24 07:48:00,76.4,69.4,29.98,West,271,1.0,4.0,79,0.00,,,0.00,Wunderground v.1.15,2013-06-24 11:48:00,
2013-06-24 07:53:00,76.8,69.8,29.98,WSW,238,5.0,5.0,79,0.00,,,0.00,Wunderground v.1.15,2013-06-24 11:53:00,
2013-06-24 07:59:00,77.1,69.7,29.98,SW,219,1.0,9.0,78,0.00,,,0.00,Wunderground v.1.15,2013-06-24 11:59:00,
2013-06-24 08:04:00,77.5,69.7,29.98,West,276,2.0,4.0,77,0.00,,,0.00,Wunderground v.1.15,2013-06-24 12:04:00,
2013-06-24 08:09:00,77.5,69.7,29.98,SW,233,3.0,6.0,77,0.00,,,0.00,Wunderground v.1.15,2013-06-24 12:09:00,
2013-06-24 08:14:00,77.5,70.1,29.98,WSW,241,2.0,5.0,78,0.00,,,0.00,Wunderground v.1.15,2013-06-24 12:14:00,
2013-06-24 08:19:00,77.7,69.9,29.98,SSE,154,4.0,6.0,77,0.00,,,0.00,Wunderground v.1.15,2013-06-24 12:19:00,
2013-06-24 08:24:00,78.2,70.8,29.98,SSE,155,1.0,5.0,78,0.00,,,0.00,Wunderground v.1.15,2013-06-24 12:24:00,
2013-06-24 08:30:00,78.5,70.7,29.97,NNW,331,3.0,3.0,77,0.00,,,0.00,Wunderground v.1.15,2013-06-24 12:30:00,
2013-06-24 08:35:00,78.8,71.4,29.97,SW,234,2.0,5.0,78,0.00,,,0.00,Wunderground v.1.15,2013-06-24 12:35:00,
2013-06-24 08:40:00,79.0,70.4,29.97,SW,232,3.0,5.0,75,0.00,,,0.00,Wunderground v.1.15,2013-06-24 12:40:00,
2013-06-24 08:45:00,79.2,70.6,29.97,SW,230,5.0,7.0,75,0.00,,,0.00,Wunderground v.1.15,2013-06-24 12:45:00,
2013-06-24 08:50:00,79.4,70.8,29.97,South,188,2.0,3.0,75,0.00,,,0.00,Wunderground v.1.15,2013-06-24 12:50:00,
2013-06-24 08:55:00,79.7,71.1,29.98,WNW,288,0.0,5.0,75,0.00,,,0.00,Wunderground v.1.15,2013-06-24 12:55:00,
2013-06-24 09:00:00,80.1,71.5,29.98,WSW,237,2.0,5.0,75,0.00,,,0.00,Wunderground v.1.15,2013-06-24 13:00:00,
2013-06-24 09:05:00,80.3,71.3,29.98,West,264,2.0,5.0,74,0.00,,,0.00,Wunderground v.1.15,2013-06-24 13:05:00,
2013-06-24 09:10:00,80.5,71.4,29.98,SW,225,3.0,5.0,74,0.00,,,0.00,Wunderground v.1.15,2013-06-24 13:10:00,
2013-06-24 09:16:00,80.7,72.0,29.98,West,273,0.0,6.0,75,0.00,,,0.00,Wunderground v.1.15,2013-06-24 13:16:00,
2013-06-24 09:21:00,81.0,72.7,29.98,WSW,241,3.0,3.0,76,0.00,,,0.00,Wunderground v.1.15,2013-06-24 13:21:00,
2013-06-24 09:27:00,81.2,71.7,29.98,SSW,213,3.0,3.0,73,0.00,,,0.00,Wunderground v.1.15,2013-06-24 13:27:00,
2013-06-24 09:32:00,81.6,71.7,29.98,WSW,246,2.0,9.0,72,0.00,,,0.00,Wunderground v.1.15,2013-06-24 13:32:00,
2013-06-24 09:37:00,81.8,71.9,29.97,WSW,252,2.0,9.0,72,0.00,,,0.00,Wunderground v.1.15,2013-06-24 13:37:00,
2013-06-24 09:42:00,81.8,71.5,29.97,WNW,290,2.0,7.0,71,0.00,,,0.00,Wunderground v.1.15,2013-06-24 13:42:00,
2013-06-24 09:47:00,82.1,71.3,29.98,WSW,244,3.0,7.0,70,0.00,,,0.00,Wunderground v.1.15,2013-06-24 13:47:00,
2013-06-24 09:52:00,82.4,71.6,29.97,WNW,287,5.0,6.0,70,0.00,,,0.00,Wunderground v.1.15,2013-06-24 13:52:00,
2013-06-24 09:58:00,82.5,72.1,29.97,NNW,332,0.0,8.0,71,0.00,,,0.00,Wunderground v.1.15,2013-06-24 13:58:00,
2013-06-24 10:03:00,82.7,71.5,29.97,West,273,8.0,8.0,69,0.00,,,0.00,Wunderground v.1.15,2013-06-24 14:03:00,
2013-06-24 10:08:00,82.9,72.1,29.97,WSW,247,3.0,9.0,70,0.00,,,0.00,Wunderground v.1.15,2013-06-24 14:08:00,
2013-06-24 10:13:00,83.2,73.2,29.97,NW,305,5.0,5.0,72,0.00,,,0.00,Wunderground v.1.15,2013-06-24 14:13:00,
2013-06-24 10:18:00,83.8,73.0,29.97,West,261,1.0,5.0,70,0.00,,,0.00,Wunderground v.1.15,2013-06-24 14:18:00,
2013-06-24 10:23:00,83.9,71.3,29.97,SSW,205,4.0,7.0,66,0.00,,,0.00,Wunderground v.1.15,2013-06-24 14:23:00,
2013-06-24 10:28:00,83.8,71.7,29.97,WNW,303,5.0,7.0,67,0.00,,,0.00,Wunderground v.1.15,2013-06-24 14:28:00,
2013-06-24 10:34:00,84.1,72.0,29.97,WNW,302,3.0,6.0,67,0.00,,,0.00,Wunderground v.1.15,2013-06-24 14:34:00,
2013-06-24 10:39:00,84.2,71.6,29.97,WSW,244,4.0,8.0,66,0.00,,,0.00,Wunderground v.1.15,2013-06-24 14:39:00,
2013-06-24 10:44:00,84.1,71.1,29.97,SW,229,9.0,10.0,65,0.00,,,0.00,Wunderground v.1.15,2013-06-24 14:44:00,
2013-06-24 10:49:00,84.0,71.4,29.97,SW,234,2.0,10.0,66,0.00,,,0.00,Wunderground v.1.15,2013-06-24 14:49:00,
2013-06-24 10:54:00,84.4,72.7,29.96,SW,216,2.0,6.0,68,0.00,,,0.00,Wunderground v.1.15,2013-06-24 14:54:00,
2013-06-24 10:59:00,84.8,73.5,29.96,SW,230,2.0,2.0,69,0.00,,,0.00,Wunderground v.1.15,2013-06-24 14:59:00,
2013-06-24 11:05:00,85.0,71.9,29.96,SSW,213,2.0,7.0,65,0.00,,,0.00,Wunderground v.1.15,2013-06-24 15:05:00,
2013-06-24 11:10:00,85.4,71.8,29.96,SW,232,6.0,6.0,64,0.00,,,0.00,Wunderground v.1.15,2013-06-24 15:10:00,
2013-06-24 11:15:00,85.8,72.7,29.96,WSW,250,4.0,6.0,65,0.00,,,0.00,Wunderground v.1.15,2013-06-24 15:15:00,
2013-06-24 11:21:00,86.3,72.2,29.96,WSW,238,1.0,3.0,63,0.00,,,0.00,Wunderground v.1.15,2013-06-24 15:21:00,
2013-06-24 11:26:00,86.3,72.2,29.97,NW,309,8.0,8.0,63,0.00,,,0.00,Wunderground v.1.15,2013-06-24 15:26:00,
2013-06-24 11:31:00,86.0,71.5,29.97,WSW,255,3.0,3.0,62,0.00,,,0.00,Wunderground v.1.15,2013-06-24 15:31:00,
2013-06-24 11:36:00,86.1,72.0,29.97,SW,236,3.0,4.0,63,0.00,,,0.00,Wunderground v.1.15,2013-06-24 15:36:00,
2013-06-24 11:41:00,86.0,71.5,29.97,SW,234,4.0,6.0,62,0.00,,,0.00,Wunderground v.1.15,2013-06-24 15:41:00,
2013-06-24 11:46:00,86.0,72.4,29.97,WSW,257,3.0,7.0,64,0.00,,,0.00,Wunderground v.1.15,2013-06-24 15:46:00,
2013-06-24 11:52:00,86.4,72.8,29.97,NNW,339,1.0,4.0,64,0.00,,,0.00,Wunderground v.1.15,2013-06-24 15:52:00,
2013-06-24 11:57:00,87.0,72.4,29.96,WSW,244,5.0,6.0,62,0.00,,,0.00,Wunderground v.1.15,2013-06-24 15:57:00,
2013-06-24 12:02:00,87.0,72.9,29.96,WSW,253,0.0,4.0,63,0.00,,,0.00,Wunderground v.1.15,2013-06-24 16:02:00,
2013-06-24 12:07:00,87.2,74.5,29.96,SE,131,0.0,5.0,66,0.00,,,0.00,Wunderground v.1.15,2013-06-24 16:07:00,
2013-06-24 12:13:00,87.3,73.2,29.97,WSW,250,4.0,7.0,63,0.00,,,0.00,Wunderground v.1.15,2013-06-24 16:13:00,
2013-06-24 12:18:00,87.4,72.8,29.96,NW,305,3.0,7.0,62,0.00,,,0.00,Wunderground v.1.15,2013-06-24 16:18:00,
2013-06-24 12:24:00,87.5,72.9,29.97,North,5,2.0,4.0,62,0.00,,,0.00,Wunderground v.1.15,2013-06-24 16:24:00,
2013-06-24 12:29:00,87.3,72.7,29.97,WNW,296,4.0,4.0,62,0.00,,,0.00,Wunderground v.1.15,2013-06-24 16:29:00,
2013-06-24 12:34:00,86.8,72.2,29.97,SSE,153,2.0,4.0,62,0.00,,,0.00,Wunderground v.1.15,2013-06-24 16:34:00,
2013-06-24 12:39:00,86.4,72.3,29.97,WNW,287,2.0,6.0,63,0.00,,,0.00,Wunderground v.1.15,2013-06-24 16:39:00,
2013-06-24 12:44:00,85.9,71.8,29.97,WNW,287,2.0,4.0,63,0.00,,,0.00,Wunderground v.1.15,2013-06-24 16:44:00,
2013-06-24 12:49:00,85.8,73.1,29.98,West,259,3.0,6.0,66,0.00,,,0.00,Wunderground v.1.15,2013-06-24 16:49:00,
2013-06-24 12:54:00,85.5,72.4,29.98,WNW,294,3.0,8.0,65,0.00,,,0.00,Wunderground v.1.15,2013-06-24 16:54:00,
2013-06-24 12:59:00,85.1,72.0,29.98,WSW,257,4.0,8.0,65,0.00,,,0.00,Wunderground v.1.15,2013-06-24 16:59:00,
2013-06-24 13:04:00,85.0,71.0,29.98,NNW,329,2.0,4.0,63,0.00,,,0.00,Wunderground v.1.15,2013-06-24 17:04:00,
2013-06-24 13:09:00,84.9,72.3,29.98,North,355,3.0,3.0,66,0.00,,,0.00,Wunderground v.1.15,2013-06-24 17:09:00,
2013-06-24 13:15:00,84.8,72.2,29.97,West,274,3.0,5.0,66,0.00,,,0.00,Wunderground v.1.15,2013-06-24 17:15:00,
2013-06-24 13:20:00,84.5,71.9,29.98,West,276,0.0,4.0,66,0.00,,,0.00,Wunderground v.1.15,2013-06-24 17:20:00,
2013-06-24 13:26:00,84.5,72.3,29.97,NW,321,2.0,4.0,67,0.00,,,0.00,Wunderground v.1.15,2013-06-24 17:26:00,
2013-06-24 13:31:00,84.8,73.1,29.97,NNW,330,3.0,3.0,68,0.00,,,0.00,Wunderground v.1.15,2013-06-24 17:31:00,
2013-06-24 13:36:00,85.0,71.9,29.97,NNW,348,5.0,9.0,65,0.00,,,0.00,Wunderground v.1.15,2013-06-24 17:36:00,
2013-06-24 13:41:00,85.5,73.3,29.97,NNW,329,2.0,4.0,67,0.00,,,0.00,Wunderground v.1.15,2013-06-24 17:41:00,
2013-06-24 13:46:00,86.6,73.9,29.96,WSW,244,3.0,5.0,66,0.00,,,0.00,Wunderground v.1.15,2013-06-24 17:46:00,
2013-06-24 13:51:00,87.0,73.8,29.96,SW,227,4.0,5.0,65,0.00,,,0.00,Wunderground v.1.15,2013-06-24 17:51:00,
2013-06-24 13:57:00,86.8,72.2,29.96,NNW,344,4.0,7.0,62,0.00,,,0.00,Wunderground v.1.15,2013-06-24 17:57:00,
2013-06-24 14:02:00,87.0,71.9,29.95,WSW,240,4.0,10.0,61,0.00,,,0.00,Wunderground v.1.15,2013-06-24 18:02:00,
2013-06-24 14:07:00,87.0,71.9,29.95,WNW,291,6.0,10.0,61,0.00,,,0.00,Wunderground v.1.15,2013-06-24 18:07:00,
2013-06-24 14:12:00,87.3,71.2,29.95,West,271,5.0,5.0,59,0.00,,,0.00,Wunderground v.1.15,2013-06-24 18:12:00,
2013-06-24 14:17:00,87.1,70.5,29.95,West,261,6.0,11.0,58,0.00,,,0.00,Wunderground v.1.15,2013-06-24 18:17:00,
2013-06-24 14:22:00,87.2,71.1,29.95,North,355,2.0,10.0,59,0.00,,,0.00,Wunderground v.1.15,2013-06-24 18:22:00,
2013-06-24 14:27:00,87.4,69.8,29.94,SE,142,0.0,10.0,56,0.00,,,0.00,Wunderground v.1.15,2013-06-24 18:27:00,
2013-06-24 14:33:00,87.5,70.4,29.94,SW,221,0.0,9.0,57,0.00,,,0.00,Wunderground v.1.15,2013-06-24 18:33:00,
2013-06-24 14:38:00,87.7,70.6,29.94,WSW,255,3.0,11.0,57,0.00,,,0.00,Wunderground v.1.15,2013-06-24 18:38:00,
2013-06-24 14:43:00,87.7,69.5,29.94,SW,227,2.0,5.0,55,0.00,,,0.00,Wunderground v.1.15,2013-06-24 18:43:00,
2013-06-24 14:48:00,87.7,70.6,29.93,SW,231,4.0,11.0,57,0.00,,,0.00,Wunderground v.1.15,2013-06-24 18:48:00,
2013-06-24 14:55:00,87.8,70.7,29.93,WNW,290,2.0,10.0,57,0.00,,,0.00,Wunderground v.1.15,2013-06-24 18:55:00,
2013-06-24 15:00:00,87.6,71.0,29.93,NW,307,0.0,4.0,58,0.00,,,0.00,Wunderground v.1.15,2013-06-24 19:00:00,
2013-06-24 15:05:00,87.9,70.2,29.93,NW,310,7.0,12.0,56,0.00,,,0.00,Wunderground v.1.15,2013-06-24 19:05:00,
2013-06-24 15:10:00,87.9,70.2,29.93,WNW,299,7.0,7.0,56,0.00,,,0.00,Wunderground v.1.15,2013-06-24 19:10:00,
2013-06-24 15:15:00,87.6,70.5,29.93,West,277,2.0,8.0,57,0.00,,,0.00,Wunderground v.1.15,2013-06-24 19:15:00,
2013-06-24 15:21:00,87.6,70.0,29.93,NNW,330,7.0,11.0,56,0.00,,,0.00,Wunderground v.1.15,2013-06-24 19:21:00,
2013-06-24 15:26:00,87.4,70.3,29.92,South,182,4.0,11.0,57,0.00,,,0.00,Wunderground v.1.15,2013-06-24 19:26:00,
2013-06-24 15:31:00,87.2,69.6,29.92,WNW,290,5.0,6.0,56,0.00,,,0.00,Wunderground v.1.15,2013-06-24 19:31:00,
2013-06-24 15:36:00,87.0,69.9,29.92,NW,319,3.0,9.0,57,0.00,,,0.00,Wunderground v.1.15,2013-06-24 19:36:00,
2013-06-24 15:41:00,87.2,70.6,29.92,WSW,250,7.0,9.0,58,0.00,,,0.00,Wunderground v.1.15,2013-06-24 19:41:00,
2013-06-24 15:46:00,87.0,68.9,29.91,West,267,4.0,12.0,55,0.00,,,0.00,Wunderground v.1.15,2013-06-24 19:46:00,
2013-06-24 15:51:00,87.0,69.4,29.91,WNW,290,4.0,7.0,56,0.00,,,0.00,Wunderground v.1.15,2013-06-24 19:51:00,
2013-06-24 15:56:00,87.3,69.2,29.91,West,263,3.0,11.0,55,0.00,,,0.00,Wunderground v.1.15,2013-06-24 19:56:00,
2013-06-24 16:01:00,87.4,69.3,29.91,WNW,287,7.0,8.0,55,0.00,,,0.00,Wunderground v.1.15,2013-06-24 20:01:00,
2013-06-24 16:06:00,87.1,69.0,29.91,SW,225,2.0,11.0,55,0.00,,,0.00,Wunderground v.1.15,2013-06-24 20:06:00,
2013-06-24 16:11:00,86.8,68.2,29.90,SE,142,3.0,11.0,54,0.00,,,0.00,Wunderground v.1.15,2013-06-24 20:11:00,
2013-06-24 16:17:00,86.9,68.3,29.90,SW,217,4.0,11.0,54,0.00,,,0.00,Wunderground v.1.15,2013-06-24 20:17:00,
2013-06-24 16:22:00,86.8,67.6,29.90,WNW,286,5.0,5.0,53,0.00,,,0.00,Wunderground v.1.15,2013-06-24 20:22:00,
2013-06-24 16:28:00,86.6,67.4,29.90,West,267,9.0,13.0,53,0.00,,,0.00,Wunderground v.1.15,2013-06-24 20:28:00,
2013-06-24 16:33:00,86.6,67.4,29.90,West,275,4.0,8.0,53,0.00,,,0.00,Wunderground v.1.15,2013-06-24 20:33:00,
2013-06-24 16:38:00,86.9,67.7,29.90,WSW,250,4.0,10.0,53,0.00,,,0.00,Wunderground v.1.15,2013-06-24 20:38:00,
2013-06-24 16:43:00,87.0,66.7,29.90,SSW,208,4.0,7.0,51,0.00,,,0.00,Wunderground v.1.15,2013-06-24 20:43:00,
2013-06-24 16:48:00,86.9,67.7,29.89,NW,307,11.0,11.0,53,0.00,,,0.00,Wunderground v.1.15,2013-06-24 20:48:00,
2013-06-24 16:53:00,86.6,66.9,29.89,SW,227,4.0,7.0,52,0.00,,,0.00,Wunderground v.1.15,2013-06-24 20:53:00,
2013-06-24 16:58:00,86.8,66.5,29.89,WNW,282,3.0,7.0,51,0.00,,,0.00,Wunderground v.1.15,2013-06-24 20:58:00,
2013-06-24 17:03:00,87.1,67.3,29.89,WSW,243,1.0,4.0,52,0.00,,,0.00,Wunderground v.1.15,2013-06-24 21:03:00,
2013-06-24 17:09:00,87.8,67.4,29.89,West,279,5.0,5.0,51,0.00,,,0.00,Wunderground v.1.15,2013-06-24 21:09:00,
2013-06-24 17:14:00,87.9,68.6,29.89,South,178,6.0,8.0,53,0.00,,,0.00,Wunderground v.1.15,2013-06-24 21:14:00,
2013-06-24 17:19:00,87.2,67.4,29.89,SW,227,2.0,12.0,52,0.00,,,0.00,Wunderground v.1.15,2013-06-24 21:19:00,
2013-06-24 17:24:00,87.1,66.8,29.89,WSW,238,1.0,10.0,51,0.00,,,0.00,Wunderground v.1.15,2013-06-24 21:24:00,
2013-06-24 17:30:00,87.0,66.7,29.89,WNW,286,1.0,4.0,51,0.00,,,0.00,Wunderground v.1.15,2013-06-24 21:30:00,
2013-06-24 17:35:00,87.0,66.1,29.89,WNW,302,7.0,7.0,50,0.00,,,0.00,Wunderground v.1.15,2013-06-24 21:35:00,
2013-06-24 17:40:00,87.0,67.2,29.88,SSE,167,8.0,8.0,52,0.00,,,0.00,Wunderground v.1.15,2013-06-24 21:40:00,
2013-06-24 17:45:00,86.8,66.5,29.88,SSW,209,1.0,9.0,51,0.00,,,0.00,Wunderground v.1.15,2013-06-24 21:45:00,
2013-06-24 17:51:00,87.0,66.7,29.88,SW,227,4.0,9.0,51,0.00,,,0.00,Wunderground v.1.15,2013-06-24 21:51:00,
2013-06-24 17:56:00,86.6,68.0,29.88,WNW,284,4.0,10.0,54,0.00,,,0.00,Wunderground v.1.15,2013-06-24 21:56:00,
2013-06-24 18:01:00,86.5,67.3,29.88,WSW,241,4.0,7.0,53,0.00,,,0.00,Wunderground v.1.15,2013-06-24 22:01:00,
2013-06-24 18:06:00,86.3,67.2,29.88,WSW,257,1.0,7.0,53,0.00,,,0.00,Wunderground v.1.15,2013-06-24 22:06:00,
2013-06-24 18:12:00,86.2,67.6,29.88,SW,232,3.0,6.0,54,0.00,,,0.00,Wunderground v.1.15,2013-06-24 22:12:00,
2013-06-24 18:17:00,86.0,67.4,29.88,West,271,3.0,9.0,54,0.00,,,0.00,Wunderground v.1.15,2013-06-24 22:17:00,
2013-06-24 18:22:00,85.7,67.1,29.88,WSW,238,3.0,10.0,54,0.00,,,0.00,Wunderground v.1.15,2013-06-24 22:22:00,
2013-06-24 18:27:00,85.5,67.5,29.88,West,273,3.0,11.0,55,0.00,,,0.00,Wunderground v.1.15,2013-06-24 22:27:00,
2013-06-24 18:32:00,85.5,68.5,29.89,West,259,1.0,4.0,57,0.00,,,0.00,Wunderground v.1.15,2013-06-24 22:32:00,
2013-06-24 18:37:00,85.6,68.6,29.88,WSW,256,3.0,8.0,57,0.00,,,0.00,Wunderground v.1.15,2013-06-24 22:37:00,
2013-06-24 18:43:00,85.4,68.4,29.88,West,262,3.0,6.0,57,0.00,,,0.00,Wunderground v.1.15,2013-06-24 22:43:00,
2013-06-24 18:48:00,85.5,68.5,29.88,WSW,251,2.0,6.0,57,0.00,,,0.00,Wunderground v.1.15,2013-06-24 22:48:00,
2013-06-24 18:53:00,85.4,68.4,29.88,SSW,198,1.0,5.0,57,0.00,,,0.00,Wunderground v.1.15,2013-06-24 22:53:00,
2013-06-24 18:58:00,85.1,68.2,29.88,WSW,240,3.0,7.0,57,0.00,,,0.00,Wunderground v.1.15,2013-06-24 22:58:00,
2013-06-24 19:03:00,84.9,68.5,29.88,SW,231,1.0,7.0,58,0.00,,,0.00,Wunderground v.1.15,2013-06-24 23:03:00,
2013-06-24 19:08:00,84.7,68.3,29.88,SW,218,3.0,7.0,58,0.00,,,0.00,Wunderground v.1.15,2013-06-24 23:08:00,
2013-06-24 19:13:00,84.4,68.0,29.88,NNW,348,0.0,7.0,58,0.00,,,0.00,Wunderground v.1.15,2013-06-24 23:13:00,
2013-06-24 19:18:00,84.3,67.9,29.88,WSW,237,4.0,7.0,58,0.00,,,0.00,Wunderground v.1.15,2013-06-24 23:18:00,
2013-06-24 19:24:00,84.2,67.3,29.88,WSW,251,2.0,5.0,57,0.00,,,0.00,Wunderground v.1.15,2013-06-24 23:24:00,
2013-06-24 19:29:00,84.2,67.8,29.89,South,178,2.0,5.0,58,0.00,,,0.00,Wunderground v.1.15,2013-06-24 23:29:00,
2013-06-24 19:34:00,84.0,67.6,29.89,WSW,240,1.0,6.0,58,0.00,,,0.00,Wunderground v.1.15,2013-06-24 23:34:00,
2013-06-24 19:39:00,83.8,68.4,29.89,SE,138,4.0,6.0,60,0.00,,,0.00,Wunderground v.1.15,2013-06-24 23:39:00,
2013-06-24 19:44:00,83.6,67.8,29.89,SSW,208,1.0,7.0,59,0.00,,,0.00,Wunderground v.1.15,2013-06-24 23:44:00,
2013-06-24 19:49:00,83.4,67.1,29.89,WSW,252,2.0,7.0,58,0.00,,,0.00,Wunderground v.1.15,2013-06-24 23:49:00,
2013-06-24 19:55:00,83.1,67.3,29.89,SW,223,3.0,5.0,59,0.00,,,0.00,Wunderground v.1.15,2013-06-24 23:55:00,
2013-06-24 20:01:00,82.6,66.8,29.89,SW,228,4.0,5.0,59,0.00,,,0.00,Wunderground v.1.15,2013-06-25 00:01:00,
2013-06-24 20:06:00,82.5,66.7,29.89,SSW,208,3.0,5.0,59,0.00,,,0.00,Wunderground v.1.15,2013-06-25 00:06:00,
2013-06-24 20:11:00,82.3,66.0,29.89,WSW,254,3.0,5.0,58,0.00,,,0.00,Wunderground v.1.15,2013-06-25 00:11:00,
2013-06-24 20:17:00,82.1,65.4,29.89,West,275,2.0,6.0,57,0.00,,,0.00,Wunderground v.1.15,2013-06-25 00:17:00,
2013-06-24 20:23:00,81.9,65.7,29.89,WNW,286,4.0,4.0,58,0.00,,,0.00,Wunderground v.1.15,2013-06-25 00:23:00,
2013-06-24 20:28:00,81.7,65.5,29.89,West,281,2.0,4.0,58,0.00,,,0.00,Wunderground v.1.15,2013-06-25 00:28:00,
2013-06-24 20:33:00,81.5,65.3,29.89,SW,232,0.0,2.0,58,0.00,,,0.00,Wunderground v.1.15,2013-06-25 00:33:00,
2013-06-24 20:38:00,81.3,65.6,29.89,WSW,245,0.0,5.0,59,0.00,,,0.00,Wunderground v.1.15,2013-06-25 00:38:00,
2013-06-24 20:44:00,81.0,65.3,29.89,WSW,240,0.0,4.0,59,0.00,,,0.00,Wunderground v.1.15,2013-06-25 00:44:00,
2013-06-24 20:49:00,80.7,66.0,29.89,West,265,2.0,7.0,61,0.00,,,0.00,Wunderground v.1.15,2013-06-25 00:49:00,
2013-06-24 20:54:00,80.5,65.8,29.89,ESE,109,1.0,4.0,61,0.00,,,0.00,Wunderground v.1.15,2013-06-25 00:54:00,
2013-06-24 20:59:00,80.1,65.4,29.89,SW,229,4.0,4.0,61,0.00,,,0.00,Wunderground v.1.15,2013-06-25 00:59:00,
2013-06-24 21:04:00,80.0,65.8,29.89,SSW,211,1.0,5.0,62,0.00,,,0.00,Wunderground v.1.15,2013-06-25 01:04:00,
2013-06-24 21:11:00,80.0,64.9,29.89,SSW,206,1.0,2.0,60,0.00,,,0.00,Wunderground v.1.15,2013-06-25 01:11:00,
2013-06-24 21:16:00,79.9,65.2,29.89,WSW,241,2.0,5.0,61,0.00,,,0.00,Wunderground v.1.15,2013-06-25 01:16:00,
2013-06-24 21:21:00,79.8,65.2,29.89,SW,230,3.0,6.0,61,0.00,,,0.00,Wunderground v.1.15,2013-06-25 01:21:00,
2013-06-24 21:27:00,79.8,64.7,29.89,SSW,192,0.0,6.0,60,0.00,,,0.00,Wunderground v.1.15,2013-06-25 01:27:00,
2013-06-24 21:32:00,79.7,65.1,29.90,SW,223,0.0,3.0,61,0.00,,,0.00,Wunderground v.1.15,2013-06-25 01:32:00,
2013-06-24 21:37:00,79.5,64.9,29.90,ENE,58,2.0,3.0,61,0.00,,,0.00,Wunderground v.1.15,2013-06-25 01:37:00,
2013-06-24 21:42:00,79.4,64.8,29.90,SW,229,1.0,4.0,61,0.00,,,0.00,Wunderground v.1.15,2013-06-25 01:42:00,
2013-06-24 21:49:00,79.2,65.5,29.90,SE,126,2.0,4.0,63,0.00,,,0.00,Wunderground v.1.15,2013-06-25 01:49:00,
2013-06-24 21:54:00,79.1,65.0,29.90,West,280,0.0,7.0,62,0.00,,,0.00,Wunderground v.1.15,2013-06-25 01:54:00,
2013-06-24 21:59:00,79.0,64.4,29.90,SW,227,1.0,7.0,61,0.00,,,0.00,Wunderground v.1.15,2013-06-25 01:59:00,
2013-06-24 22:05:00,79.0,64.9,29.91,SW,217,0.0,3.0,62,0.00,,,0.00,Wunderground v.1.15,2013-06-25 02:05:00,
2013-06-24 22:10:00,78.8,65.1,29.91,SSW,194,1.0,1.0,63,0.00,,,0.00,Wunderground v.1.15,2013-06-25 02:10:00,
2013-06-24 22:15:00,78.6,64.9,29.91,West,270,0.0,2.0,63,0.00,,,0.00,Wunderground v.1.15,2013-06-25 02:15:00,
2013-06-24 22:21:00,78.3,65.1,29.91,West,277,2.0,4.0,64,0.00,,,0.00,Wunderground v.1.15,2013-06-25 02:21:00,
2013-06-24 22:26:00,78.2,65.0,29.91,West,268,0.0,4.0,64,0.00,,,0.00,Wunderground v.1.15,2013-06-25 02:26:00,
2013-06-24 22:32:00,78.1,64.9,29.91,WSW,247,3.0,6.0,64,0.00,,,0.00,Wunderground v.1.15,2013-06-25 02:32:00,
2013-06-24 22:37:00,78.1,65.4,29.91,SSW,198,6.0,6.0,65,0.00,,,0.00,Wunderground v.1.15,2013-06-25 02:37:00,
2013-06-24 22:43:00,78.1,65.4,29.90,SW,216,1.0,2.0,65,0.00,,,0.00,Wunderground v.1.15,2013-06-25 02:43:00,
2013-06-24 22:48:00,78.0,65.3,29.90,SSW,200,2.0,2.0,65,0.00,,,0.00,Wunderground v.1.15,2013-06-25 02:48:00,
2013-06-24 22:53:00,77.9,65.6,29.90,West,281,1.0,2.0,66,0.00,,,0.00,Wunderground v.1.15,2013-06-25 02:53:00,
2013-06-24 22:58:00,77.8,65.5,29.90,WSW,248,2.0,3.0,66,0.00,,,0.00,Wunderground v.1.15,2013-06-25 02:58:00,
2013-06-24 23:03:00,77.7,65.4,29.90,WSW,248,1.0,4.0,66,0.00,,,0.00,Wunderground v.1.15,2013-06-25 03:03:00,
2013-06-24 23:09:00,77.6,65.8,29.90,SW,215,1.0,4.0,67,0.00,,,0.00,Wunderground v.1.15,2013-06-25 03:09:00,
2013-06-24 23:14:00,77.4,65.1,29.90,WSW,254,0.0,4.0,66,0.00,,,0.00,Wunderground v.1.15,2013-06-25 03:14:00,
2013-06-24 23:19:00,77.2,65.4,29.90,SSW,198,1.0,1.0,67,0.00,,,0.00,Wunderground v.1.15,2013-06-25 03:19:00,
2013-06-24 23:26:00,76.9,65.1,29.90,SSW,212,0.0,5.0,67,0.00,,,0.00,Wunderground v.1.15,2013-06-25 03:26:00,
2013-06-24 23:31:00,77.0,65.2,29.90,WSW,244,2.0,2.0,67,0.00,,,0.00,Wunderground v.1.15,2013-06-25 03:31:00,
2013-06-24 23:37:00,76.9,65.5,29.90,SW,215,0.0,3.0,68,0.00,,,0.00,Wunderground v.1.15,2013-06-25 03:37:00,
2013-06-24 23:42:00,76.8,65.9,29.89,WSW,250,0.0,3.0,69,0.00,,,0.00,Wunderground v.1.15,2013-06-25 03:42:00,
2013-06-24 23:49:00,76.6,65.7,29.90,SSW,205,4.0,4.0,69,0.00,,,0.00,Wunderground v.1.15,2013-06-25 03:49:00,
2013-06-24 23:54:00,76.5,66.0,29.89,SE,130,1.0,3.0,70,0.00,,,0.00,Wunderground v.1.15,2013-06-25 03:54:00,